Location: Unspecified
(56.5167°N, 0.0000°E)
Time: 11:26:45
(UTC+02:00)

Resurs 1-4 Rocket - Pass Details

Date: 06 August 2020
Orbit: 799 x 815 km, 98.6° (Epoch: 23 September)

Event Time Altitude Azimuth Distance (km) Brightness Sun altitude
Rises 03:52:32 0° 16° (NNE) 3,342 7.2 -13.5°
Reaches altitude 10° 03:54:53 10° 18° (NNE) 2,404 6.0 -13.4°
Maximum altitude 04:00:13 80° 105° (ESE) 825 2.2 -13.1°
Enters shadow 04:04:23 17° 193° (SSW) 1,945 3.5 -12.8°
